Wetterstation 29328 Müden/Ö

Wetterdaten: aktuell Montag, 19.02.2018 23:00
Datum Zeit Temp. A. Feuchte A. Luftdruck Regen Wind Richtung Richtung Windben
19.02.2018 23:00 -1,1 C 93 % 1018,8 hPa 0,0 l/m 0,0 km/h (0 Bft) SW 215 0,0 km/h (0 Bft)
19.02.2018 22:55 -1,1 C 93 % 1018,7 hPa 0,0 l/m 0,0 km/h (0 Bft) SW 215 0,0 km/h (0 Bft)
19.02.2018 22:50 -1,1 C 93 % 1018,7 hPa 0,0 l/m 0,0 km/h (0 Bft) SW 215 0,0 km/h (0 Bft)
19.02.2018 22:45 -1,1 C 93 % 1018,7 hPa 0,0 l/m 0,0 km/h (0 Bft) SW 215 0,0 km/h (0 Bft)
19.02.2018 22:40 -1,0 C 93 % 1018,6 hPa 0,0 l/m 0,0 km/h (0 Bft) SW 215 0,0 km/h (0 Bft)
19.02.2018 22:35 -1,0 C 93 % 1018,6 hPa 0,0 l/m 0,0 km/h (0 Bft) SW 215 0,0 km/h (0 Bft)
19.02.2018 22:30 -1,0 C 93 % 1018,6 hPa 0,0 l/m 0,0 km/h (0 Bft) SW 215 0,0 km/h (0 Bft)
19.02.2018 22:25 -1,1 C 93 % 1018,6 hPa 0,0 l/m 0,0 km/h (0 Bft) SW 215 0,0 km/h (0 Bft)
19.02.2018 22:20 -1,1 C 93 % 1018,6 hPa 0,0 l/m 0,0 km/h (0 Bft) SW 215 0,0 km/h (0 Bft)
19.02.2018 22:15 -1,1 C 92 % 1018,6 hPa 0,0 l/m 0,0 km/h (0 Bft) SW 215 0,0 km/h (0 Bft)
19.02.2018 22:10 -1,1 C 92 % 1018,6 hPa 0,0 l/m 0,0 km/h (0 Bft) SW 215 0,0 km/h (0 Bft)
19.02.2018 22:05 -1,0 C 92 % 1018,6 hPa 0,0 l/m 0,0 km/h (0 Bft) SW 215 0,0 km/h (0 Bft)
19.02.2018 22:00 -1,0 C 92 % 1018,6 hPa 0,0 l/m 0,0 km/h (0 Bft) SW 215 0,0 km/h (0 Bft)
19.02.2018 21:55 -0,9 C 92 % 1018,6 hPa 0,0 l/m 0,0 km/h (0 Bft) SW 215 0,0 km/h (0 Bft)
19.02.2018 21:50 -0,9 C 91 % 1018,6 hPa 0,0 l/m 0,0 km/h (0 Bft) SW 215 0,0 km/h (0 Bft)
19.02.2018 21:45 -0,9 C 91 % 1018,6 hPa 0,0 l/m 0,0 km/h (0 Bft) SW 215 0,0 km/h (0 Bft)
19.02.2018 21:40 -0,8 C 91 % 1018,6 hPa 0,0 l/m 0,0 km/h (0 Bft) SW 215 0,0 km/h (0 Bft)
19.02.2018 21:35 -0,8 C 91 % 1018,7 hPa 0,0 l/m 0,0 km/h (0 Bft) SW 215 0,0 km/h (0 Bft)
19.02.2018 21:30 -0,8 C 91 % 1018,7 hPa 0,0 l/m 0,0 km/h (0 Bft) SW 215 0,0 km/h (0 Bft)
19.02.2018 21:25 -0,7 C 91 % 1018,7 hPa 0,0 l/m 0,0 km/h (0 Bft) SW 215 0,0 km/h (0 Bft)
19.02.2018 21:20 -0,8 C 91 % 1018,7 hPa 0,0 l/m 0,0 km/h (0 Bft) SW 215 0,0 km/h (0 Bft)
19.02.2018 21:15 -0,7 C 91 % 1018,7 hPa 0,0 l/m 0,0 km/h (0 Bft) SW 215 0,0 km/h (0 Bft)
19.02.2018 21:10 -0,7 C 91 % 1018,8 hPa 0,0 l/m 0,0 km/h (0 Bft) SW 215 0,0 km/h (0 Bft)
19.02.2018 21:05 -0,7 C 91 % 1018,8 hPa 0,0 l/m 0,0 km/h (0 Bft) SW 215 0,0 km/h (0 Bft)
19.02.2018 21:00 -0,7 C 91 % 1018,8 hPa 0,0 l/m 0,0 km/h (0 Bft) SW 215 0,0 km/h (0 Bft)
19.02.2018 20:55 -0,7 C 91 % 1018,8 hPa 0,0 l/m 0,0 km/h (0 Bft) SW 215 0,0 km/h (0 Bft)
19.02.2018 20:50 -0,7 C 91 % 1018,9 hPa 0,0 l/m 0,0 km/h (0 Bft) SW 215 0,0 km/h (0 Bft)
19.02.2018 20:45 -0,7 C 91 % 1018,9 hPa 0,0 l/m 0,0 km/h (0 Bft) SW 215 0,0 km/h (0 Bft)
19.02.2018 20:40 -0,7 C 91 % 1018,9 hPa 0,0 l/m 0,0 km/h (0 Bft) SW 215 0,0 km/h (0 Bft)
19.02.2018 20:35 -0,7 C 91 % 1018,9 hPa 0,0 l/m 0,0 km/h (0 Bft) SW 215 0,0 km/h (0 Bft)
19.02.2018 20:30 -0,7 C 91 % 1018,9 hPa 0,0 l/m 0,0 km/h (0 Bft) SW 215 0,0 km/h (0 Bft)
19.02.2018 20:25 -0,7 C 91 % 1019,0 hPa 0,0 l/m 0,0 km/h (0 Bft) SW 215 0,0 km/h (0 Bft)
19.02.2018 20:20 -0,7 C 91 % 1018,9 hPa 0,0 l/m 0,0 km/h (0 Bft) SW 215 0,0 km/h (0 Bft)
19.02.2018 20:15 -0,7 C 91 % 1018,9 hPa 0,0 l/m 0,0 km/h (0 Bft) SW 215 0,0 km/h (0 Bft)
19.02.2018 20:10 -0,8 C 91 % 1019,0 hPa 0,0 l/m 0,0 km/h (0 Bft) SW 215 0,0 km/h (0 Bft)
19.02.2018 20:05 -0,8 C 91 % 1018,9 hPa 0,0 l/m 0,0 km/h (0 Bft) SW 215 0,0 km/h (0 Bft)
19.02.2018 20:00 -0,8 C 91 % 1019,0 hPa 0,0 l/m 0,0 km/h (0 Bft) SW 215 0,0 km/h (0 Bft)
19.02.2018 19:55 -0,8 C 91 % 1018,9 hPa 0,0 l/m 0,0 km/h (0 Bft) SW 215 0,0 km/h (0 Bft)
19.02.2018 19:50 -0,8 C 91 % 1018,9 hPa 0,0 l/m 0,0 km/h (0 Bft) SW 215 0,0 km/h (0 Bft)
19.02.2018 19:45 -0,8 C 90 % 1018,9 hPa 0,0 l/m 0,0 km/h (0 Bft) SW 215 0,0 km/h (0 Bft)
19.02.2018 19:40 -0,9 C 90 % 1018,9 hPa 0,0 l/m 0,0 km/h (0 Bft) SW 215 0,0 km/h (0 Bft)
19.02.2018 19:35 -0,9 C 90 % 1019,0 hPa 0,0 l/m 0,0 km/h (0 Bft) SW 215 0,0 km/h (0 Bft)
19.02.2018 19:30 -0,8 C 90 % 1019,0 hPa 0,0 l/m 0,0 km/h (0 Bft) SW 215 0,0 km/h (0 Bft)
19.02.2018 19:25 -0,8 C 90 % 1019,0 hPa 0,0 l/m 0,0 km/h (0 Bft) SW 215 0,0 km/h (0 Bft)
19.02.2018 19:20 -0,8 C 90 % 1019,0 hPa 0,0 l/m 0,0 km/h (0 Bft) SW 215 0,0 km/h (0 Bft)
19.02.2018 19:15 -0,8 C 90 % 1019,0 hPa 0,0 l/m 0,0 km/h (0 Bft) SW 215 0,0 km/h (0 Bft)
19.02.2018 19:10 -0,7 C 90 % 1019,0 hPa 0,0 l/m 0,0 km/h (0 Bft) SW 215 0,0 km/h (0 Bft)
19.02.2018 19:05 -0,7 C 90 % 1019,0 hPa 0,0 l/m 0,0 km/h (0 Bft) SW 215 0,0 km/h (0 Bft)
19.02.2018 19:00 -0,7 C 90 % 1018,9 hPa 0,0 l/m 0,0 km/h (0 Bft) SW 215 0,0 km/h (0 Bft)
19.02.2018 18:55 -0,6 C 90 % 1018,9 hPa 0,0 l/m 0,0 km/h (0 Bft) SW 215 0,0 km/h (0 Bft)
19.02.2018 18:50 -0,5 C 90 % 1018,9 hPa 0,0 l/m 0,0 km/h (0 Bft) SW 215 0,0 km/h (0 Bft)
19.02.2018 18:45 -0,4 C 90 % 1018,9 hPa 0,0 l/m 0,0 km/h (0 Bft) SW 215 0,0 km/h (0 Bft)
19.02.2018 18:40 -0,3 C 90 % 1018,9 hPa 0,0 l/m 0,0 km/h (0 Bft) SW 215 0,0 km/h (0 Bft)
19.02.2018 18:35 -0,1 C 89 % 1018,9 hPa 0,0 l/m 0,0 km/h (0 Bft) SW 215 0,0 km/h (0 Bft)
19.02.2018 18:30 0,1 C 88 % 1018,9 hPa 0,0 l/m 0,0 km/h (0 Bft) SW 215 0,0 km/h (0 Bft)
19.02.2018 18:25 0,1 C 88 % 1018,9 hPa 0,0 l/m 0,0 km/h (0 Bft) SW 215 1,6 km/h (1 Bft)
19.02.2018 18:20 0,2 C 87 % 1018,7 hPa 0,0 l/m 0,0 km/h (0 Bft) SW 215 0,0 km/h (0 Bft)
19.02.2018 18:15 0,3 C 86 % 1018,7 hPa 0,0 l/m 0,1 km/h (0 Bft) SW 215 1,6 km/h (1 Bft)
19.02.2018 18:10 0,4 C 86 % 1018,7 hPa 0,0 l/m 0,2 km/h (0 Bft) SW 215 1,6 km/h (1 Bft)
19.02.2018 18:05 0,6 C 86 % 1018,7 hPa 0,0 l/m 0,0 km/h (0 Bft) SW 215 1,6 km/h (1 Bft)
19.02.2018 18:00 0,7 C 85 % 1018,7 hPa 0,0 l/m 0,0 km/h (0 Bft) SW 215 1,6 km/h (1 Bft)
_ Min-Zeit 00:20 14:50 21:40 - 00:40 - - 00:40
Minimum _ -1,6 C 65 % 1018,6 hPa - 0,0 km/h (0 Bft) - - 0,0 km/h (0 Bft)
_ Max-Zeit 14:45 08:25 00:00 00:00 13:35 - - 13:15
Maximum _ 5,7 C 94 % 1023,9 hPa 0,0 l/m 6,5 km/h
S-SW (2 Bft)
- - 14,5 km/h
SW (3 Bft)
Durchschnitt _ 0,7 C 85 % 1020,5 hPa #0,0 l/m 1,2 km/h (1 Bft) SW - 2,9 km/h (1 Bft)

nach oben

Copyright 2006 - 2018 fr den gesamten Inhalt der Webseite